TimeCST,TemperatureF,Dew PointF,Humidity,Sea Level PressureIn,VisibilityMPH,Wind Direction,Wind SpeedMPH,Gust SpeedMPH,PrecipitationIn,Events,Conditions,WindDirDegrees,DateUTC
12:15 AM,23.0,19.4,86,30.04,5.0,North,13.8,23.0,N/A,Snow,Light Snow,360,2014-01-05 06:15:00
12:35 AM,23.0,19.4,86,30.07,7.0,North,18.4,24.2,N/A,Snow,Light Snow,360,2014-01-05 06:35:00
12:55 AM,23.0,19.4,86,30.08,5.0,North,15.0,-,N/A,Snow,Light Snow,350,2014-01-05 06:55:00
1:15 AM,23.0,19.4,86,30.08,7.0,North,10.4,-,N/A,Snow,Light Snow,350,2014-01-05 07:15:00
1:35 AM,23.0,19.4,86,30.08,7.0,North,10.4,-,N/A,Snow,Light Snow,350,2014-01-05 07:35:00
1:55 AM,23.0,21.2,93,30.08,4.0,North,16.1,24.2,N/A,Snow,Light Snow,360,2014-01-05 07:55:00
2:15 AM,23.0,19.4,86,30.09,5.0,North,15.0,24.2,N/A,Snow,Light Snow,360,2014-01-05 08:15:00
2:35 AM,23.0,19.4,86,30.10,4.0,NNW,18.4,24.2,N/A,Snow,Light Snow,340,2014-01-05 08:35:00
2:55 AM,21.2,17.6,86,30.10,7.0,North,21.9,29.9,N/A,Snow,Light Snow,350,2014-01-05 08:55:00
3:15 AM,21.2,17.6,86,30.12,5.0,NNW,18.4,26.5,N/A,Snow,Light Snow,340,2014-01-05 09:15:00
3:35 AM,21.2,17.6,86,30.12,10.0,North,17.3,25.3,N/A,Snow,Light Snow,350,2014-01-05 09:35:00
3:55 AM,21.2,17.6,86,30.12,4.0,North,16.1,28.8,N/A,Snow,Light Snow,350,2014-01-05 09:55:00
4:15 AM,21.2,17.6,86,30.13,5.0,NNW,16.1,20.7,N/A,Snow,Light Snow,340,2014-01-05 10:15:00
4:35 AM,21.2,17.6,86,30.13,5.0,NNW,20.7,27.6,N/A,Snow,Light Snow,340,2014-01-05 10:35:00
4:55 AM,19.4,14.0,80,30.14,7.0,NNW,16.1,24.2,N/A,Snow,Light Snow,340,2014-01-05 10:55:00
5:15 AM,19.4,15.8,86,30.15,10.0,North,16.1,-,N/A,Snow,Light Snow,350,2014-01-05 11:15:00
5:35 AM,19.4,15.8,86,30.16,4.0,NNW,10.4,-,N/A,Snow,Light Snow,340,2014-01-05 11:35:00
5:55 AM,19.4,15.8,86,30.16,7.0,North,13.8,18.4,N/A,Snow,Light Snow,350,2014-01-05 11:55:00
6:15 AM,19.4,14.0,80,30.17,10.0,NNW,12.7,-,N/A,,Overcast,340,2014-01-05 12:15:00
6:35 AM,17.6,14.0,86,30.17,10.0,North,11.5,-,N/A,,Mostly Cloudy,350,2014-01-05 12:35:00
6:55 AM,17.6,12.2,79,30.17,10.0,North,9.2,-,N/A,,Scattered Clouds,350,2014-01-05 12:55:00
7:15 AM,17.6,10.4,73,30.19,10.0,NNW,11.5,-,N/A,,Clear,340,2014-01-05 13:15:00
7:35 AM,15.8,6.8,68,30.20,10.0,NNW,11.5,-,N/A,,Clear,340,2014-01-05 13:35:00
7:55 AM,15.8,6.8,68,30.21,10.0,North,11.5,-,N/A,,Clear,350,2014-01-05 13:55:00
8:15 AM,15.8,5.0,62,30.23,10.0,NNW,12.7,-,N/A,,Clear,340,2014-01-05 14:15:00
8:35 AM,15.8,5.0,62,30.25,10.0,North,13.8,18.4,N/A,,Clear,350,2014-01-05 14:35:00
8:55 AM,17.6,3.2,53,30.27,10.0,North,11.5,16.1,N/A,,Clear,360,2014-01-05 14:55:00
9:15 AM,17.6,3.2,53,30.29,10.0,North,13.8,20.7,N/A,,Clear,360,2014-01-05 15:15:00
9:35 AM,17.6,3.2,53,30.29,10.0,North,17.3,-,N/A,,Clear,350,2014-01-05 15:35:00
9:55 AM,17.6,3.2,53,30.30,10.0,North,18.4,24.2,N/A,,Clear,350,2014-01-05 15:55:00
10:15 AM,17.6,3.2,53,30.31,10.0,North,19.6,24.2,N/A,,Clear,350,2014-01-05 16:15:00
10:35 AM,17.6,3.2,53,30.32,10.0,NNW,18.4,-,N/A,,Clear,340,2014-01-05 16:35:00
10:55 AM,17.6,3.2,53,30.33,10.0,NNW,18.4,21.9,N/A,,Clear,340,2014-01-05 16:55:00
11:15 AM,17.6,1.4,49,30.33,10.0,North,16.1,21.9,N/A,,Clear,350,2014-01-05 17:15:00
11:35 AM,19.4,1.4,46,30.35,10.0,NNW,17.3,21.9,N/A,,Clear,330,2014-01-05 17:35:00
11:55 AM,19.4,1.4,46,30.34,10.0,North,18.4,23.0,N/A,,Clear,350,2014-01-05 17:55:00
12:15 PM,19.4,1.4,46,30.33,10.0,North,16.1,-,N/A,,Clear,350,2014-01-05 18:15:00
12:35 PM,19.4,3.2,49,30.33,10.0,North,16.1,21.9,N/A,,Clear,360,2014-01-05 18:35:00
12:55 PM,19.4,3.2,49,30.32,10.0,North,18.4,-,N/A,,Clear,360,2014-01-05 18:55:00
1:15 PM,19.4,3.2,49,30.32,10.0,North,17.3,-,N/A,,Clear,350,2014-01-05 19:15:00
1:35 PM,21.2,3.2,46,30.33,10.0,North,13.8,20.7,N/A,,Clear,350,2014-01-05 19:35:00
1:55 PM,21.2,3.2,46,30.33,10.0,NNW,13.8,-,N/A,,Clear,330,2014-01-05 19:55:00
2:15 PM,21.2,3.2,46,30.33,10.0,North,18.4,21.9,N/A,,Clear,350,2014-01-05 20:15:00
2:35 PM,21.2,3.2,46,30.33,10.0,NNE,15.0,-,N/A,,Clear,20,2014-01-05 20:35:00
2:55 PM,21.2,5.0,50,30.35,10.0,North,12.7,18.4,N/A,,Clear,360,2014-01-05 20:55:00
3:15 PM,21.2,5.0,50,30.36,10.0,NNW,13.8,18.4,N/A,,Clear,340,2014-01-05 21:15:00
3:35 PM,21.2,6.8,54,30.37,10.0,North,16.1,20.7,N/A,,Clear,350,2014-01-05 21:35:00
3:55 PM,19.4,5.0,54,30.38,10.0,North,17.3,23.0,N/A,,Clear,350,2014-01-05 21:55:00
4:15 PM,19.4,6.8,58,30.40,10.0,North,20.7,-,N/A,,Clear,360,2014-01-05 22:15:00
4:35 PM,19.4,6.8,58,30.40,10.0,North,16.1,23.0,N/A,,Scattered Clouds,360,2014-01-05 22:35:00
4:55 PM,17.6,5.0,58,30.42,10.0,North,15.0,21.9,N/A,,Scattered Clouds,360,2014-01-05 22:55:00
5:15 PM,17.6,6.8,63,30.43,10.0,North,12.7,-,N/A,,Clear,350,2014-01-05 23:15:00
5:35 PM,15.8,6.8,68,30.45,10.0,North,9.2,-,N/A,,Scattered Clouds,350,2014-01-05 23:35:00
5:55 PM,14.0,5.0,67,30.47,10.0,North,9.2,-,N/A,,Scattered Clouds,350,2014-01-05 23:55:00
6:15 PM,14.0,5.0,67,30.47,10.0,North,9.2,-,N/A,,Clear,350,2014-01-06 00:15:00
6:35 PM,12.2,5.0,73,30.48,10.0,North,8.1,-,N/A,,Clear,360,2014-01-06 00:35:00
6:55 PM,12.2,3.2,67,30.49,10.0,North,5.8,-,N/A,,Clear,360,2014-01-06 00:55:00
7:15 PM,10.4,3.2,73,30.49,10.0,North,4.6,-,N/A,,Clear,350,2014-01-06 01:15:00
7:35 PM,10.4,3.2,73,30.50,10.0,North,8.1,-,N/A,,Clear,360,2014-01-06 01:35:00
7:55 PM,12.2,5.0,73,30.51,10.0,North,8.1,-,N/A,,Scattered Clouds,350,2014-01-06 01:55:00
8:15 PM,10.4,5.0,79,30.52,10.0,NNW,6.9,-,N/A,,Scattered Clouds,340,2014-01-06 02:15:00
8:35 PM,10.4,5.0,79,30.53,10.0,NNW,4.6,-,N/A,,Mostly Cloudy,330,2014-01-06 02:35:00
8:55 PM,10.4,5.0,79,30.53,10.0,NNW,3.5,-,N/A,,Scattered Clouds,340,2014-01-06 02:55:00
9:15 PM,10.4,5.0,79,30.54,10.0,WNW,3.5,-,N/A,,Scattered Clouds,290,2014-01-06 03:15:00
9:35 PM,10.4,5.0,79,30.54,10.0,WNW,3.5,-,N/A,,Mostly Cloudy,300,2014-01-06 03:35:00
9:55 PM,10.4,5.0,79,30.55,10.0,West,4.6,-,N/A,,Mostly Cloudy,280,2014-01-06 03:55:00
10:15 PM,8.6,5.0,85,30.55,10.0,West,5.8,-,N/A,,Scattered Clouds,260,2014-01-06 04:15:00
10:35 PM,8.6,3.2,79,30.55,10.0,WSW,5.8,-,N/A,,Scattered Clouds,250,2014-01-06 04:35:00
10:55 PM,10.4,5.0,79,30.55,10.0,WSW,5.8,-,N/A,,Mostly Cloudy,240,2014-01-06 04:55:00
11:15 PM,8.6,5.0,85,30.55,10.0,WSW,6.9,-,N/A,,Scattered Clouds,240,2014-01-06 05:15:00
11:35 PM,8.6,5.0,85,30.55,10.0,WSW,5.8,-,N/A,,Clear,240,2014-01-06 05:35:00
11:55 PM,6.8,3.2,85,30.56,10.0,West,4.6,-,N/A,,Clear,260,2014-01-06 05:55:00